{"data":{"norad_id":53622,"intl_designator":"2022-104AL","name":"STARLINK-4568","alt_names":[],"object_type":"PAYLOAD","status":"ACTIVE","operator":null,"country":"US","launch_date":"2022-08-28","launch_site_code":"AFETR","launch_vehicle":null,"mission":null,"orbit_class":"UNKNOWN","rcs_meters":null,"size_class":null,"mass_kg":null,"dimensions":null,"purposes":["comms"],"wikipedia_slug":null,"has_3d_model":false,"image_url":null,"decayed_at":null,"tle_current":{"epoch":"2026-09-19T21:05:35.687328Z","epoch_age_seconds":135000,"freshness":"FRESH","line1":"1 53622U 22104AL  26262.87888527  .00000494  00000+0  25756-4 0  9993","line2":"2 53622  53.1611  70.3037 0001204  84.5992 275.5148 15.34393417225226","mean_motion":15.34393417,"eccentricity":0.0001204,"inclination_deg":53.1611,"raan_deg":70.3037,"arg_perigee_deg":84.5992,"mean_anomaly_deg":275.5148,"bstar":2.5756e-5,"rev_number":22522,"period_min":93.848160715877,"perigee_km":461.89916681968,"apogee_km":463.54644586105,"semimajor_km":6840.8598063404,"source":"CELESTRAK","updated_at":"2026-09-21T09:00:32.941913Z"}}}